Weather History for Charlevoix, MI

Change the Weather History Date:

Thursday, March 28, 2013

  Actual Average Record
Temperature  
Mean Temperature 35 °F -  
Max Temperature 40 °F 39 °F 59 °F (2012)
Min Temperature 30 °F 26 °F 10 °F (2011)
Degree Days  
Heating Degree Days 30    
Moisture  
Dew Point 29 °F    
Average Humidity 79    
Maximum Humidity 92    
Minimum Humidity 62    
Precipitation  
Precipitation 0.00 in - - ()
Sea Level Pressure  
Sea Level Pressure 30.27 in    
Wind  
Wind Speed 7 mph (West)    
Max Wind Speed 13 mph    
Max Gust Speed -    
Visibility 10 miles    
Events      
Averages and records for this station are not official NWS values.
T = Trace of Precipitation, MM = Missing Value Source: NWS Daily Summary

Daily Weather History Graph

Daily Weather History Graph

Search for Another Location

Airport:

Trip Planner

Search our weather history database for the weather conditions in past years. The results will help you decide how hot, cold, wet, or windy it might be!

Date:

Astronomy

Mar. 28, 2013 Rise Set
Actual Time 7:28 AM EDT 8:04 PM EDT
Civil Twilight 6:58 AM EDT 8:34 PM EDT
Nautical Twilight 6:23 AM EDT 9:09 PM EDT
Astronomical Twilight 5:47 AM EDT 9:45 PM EDT
Moon 10:02 PM EDT (3/28) 7:50 AM EDT (3/28)
Length of Visible Light 13h 35m
Length of Day
12h 35m
Full, 98% of the Moon is Illuminated
Mar 28
Full
Apr 3
Last Quarter
Apr 10
New
Apr 18
First Quarter
Apr 25
Full

Hourly Weather History & Observations

Time (EDT) Temp. Windchill Dew Point Humidity Pressure Visibility Wind Dir Wind Speed Gust Speed Precip Events Conditions
12:14 AM 33.1 °F 27.7 °F 29.3 °F 86% 30.24 in 10.0 mi WNW 5.8 mph - N/A   Overcast
12:35 AM 33.1 °F 28.7 °F 29.1 °F 85% 30.24 in 10.0 mi WNW 4.6 mph - N/A   Overcast
12:54 AM 33.3 °F 28.9 °F 28.9 °F 84% 30.24 in 10.0 mi WNW 4.6 mph - N/A   Overcast
1:13 AM 33.3 °F 27.1 °F 28.0 °F 81% 30.24 in 10.0 mi WNW 6.9 mph - N/A   Overcast
1:34 AM 32.7 °F 26.4 °F 28.0 °F 83% 30.24 in 10.0 mi West 6.9 mph - N/A   Overcast
1:54 AM 32.4 °F 26.0 °F 27.9 °F 83% 30.24 in 10.0 mi WNW 6.9 mph - N/A   Mostly Cloudy
2:15 AM 32.0 °F 25.6 °F 27.7 °F 84% 30.24 in 10.0 mi WNW 6.9 mph - N/A   Overcast
2:34 AM 32.2 °F 25.8 °F 27.3 °F 82% 30.24 in 10.0 mi WNW 6.9 mph - N/A   Overcast
2:54 AM 32.4 °F 26.9 °F 27.5 °F 82% 30.24 in 10.0 mi WNW 5.8 mph - N/A   Overcast
3:15 AM 32.0 °F 27.5 °F 27.3 °F 83% 30.24 in 10.0 mi NW 4.6 mph - N/A   Scattered Clouds
3:34 AM 32.0 °F 25.6 °F 27.3 °F 83% 30.24 in 10.0 mi WNW 6.9 mph - N/A   Scattered Clouds
3:54 AM 32.0 °F 24.8 °F 26.6 °F 80% 30.24 in 10.0 mi WNW 8.1 mph - N/A   Clear
4:14 AM 32.0 °F 25.6 °F 26.2 °F 79% 30.24 in 10.0 mi WNW 6.9 mph - N/A   Clear
4:34 AM 32.0 °F 25.6 °F 26.2 °F 79% 30.24 in 10.0 mi WNW 6.9 mph - N/A   Clear
4:54 AM 32.0 °F 25.6 °F 26.4 °F 80% 30.24 in 10.0 mi WNW 6.9 mph - N/A   Clear
5:00 AM 32.0 °F 25.6 °F 26.6 °F 80% 30.24 in 10.0 mi WNW 6.9 mph - N/A   Clear
5:37 AM 32.0 °F 27.5 °F 26.6 °F 80% 30.24 in 10.0 mi WNW 4.6 mph - N/A   Clear
5:56 AM 30.2 °F 25.4 °F 26.6 °F 86% 30.24 in 10.0 mi WNW 4.6 mph - N/A   Clear
5:58 AM 31.1 °F 26.4 °F 26.6 °F 83% 30.24 in 10.0 mi WNW 4.6 mph - N/A   Clear
6:14 AM 31.1 °F 26.4 °F 26.6 °F 83% 30.24 in 10.0 mi WNW 4.6 mph - N/A   Clear
6:34 AM 30.6 °F 24.7 °F 26.2 °F 84% 30.25 in 10.0 mi West 5.8 mph - N/A   Clear
6:55 AM 30.4 °F 24.5 °F 26.8 °F 86% 30.25 in 10.0 mi NW 5.8 mph - N/A   Clear
7:14 AM 31.1 °F 27.7 °F 27.1 °F 85% 30.25 in 10.0 mi NW 3.5 mph - N/A   Clear
7:35 AM 30.9 °F 27.5 °F 27.3 °F 86% 30.26 in 10.0 mi NW 3.5 mph - N/A   Clear
7:55 AM 30.7 °F 26.0 °F 27.5 °F 88% 30.26 in 10.0 mi WNW 4.6 mph - N/A   Clear
8:14 AM 31.8 °F 25.4 °F 28.2 °F 87% 30.26 in 10.0 mi NW 6.9 mph - N/A   Clear
8:35 AM 32.7 °F 27.3 °F 29.1 °F 87% 30.26 in 10.0 mi NW 5.8 mph - N/A   Clear
8:54 AM 33.8 °F 28.6 °F 29.3 °F 84% 30.27 in 10.0 mi NW 5.8 mph - N/A   Clear
9:14 AM 34.2 °F 30.0 °F 29.7 °F 84% 30.27 in 10.0 mi NW 4.6 mph - N/A   Clear
9:35 AM 34.9 °F 29.9 °F 29.5 °F 81% 30.27 in 10.0 mi NW 5.8 mph - N/A   Clear
9:54 AM 35.4 °F 32.6 °F 29.8 °F 80% 30.28 in 10.0 mi West 3.5 mph - N/A   Clear
10:14 AM 35.6 °F 30.7 °F 29.7 °F 79% 30.28 in 10.0 mi WNW 5.8 mph - N/A   Clear
10:35 AM 36.5 °F 31.8 °F 29.8 °F 77% 30.28 in 10.0 mi West 5.8 mph - N/A   Clear
10:54 AM 36.9 °F 33.1 °F 30.0 °F 76% 30.28 in 10.0 mi WSW 4.6 mph - N/A   Clear
11:14 AM 37.8 °F 31.8 °F 31.6 °F 79% 30.29 in 10.0 mi West 8.1 mph - N/A   Clear
11:35 AM 37.4 °F 31.4 °F 31.8 °F 80% 30.29 in 10.0 mi West 8.1 mph - N/A   Clear
11:54 AM 37.4 °F 30.8 °F 32.0 °F 81% 30.29 in 10.0 mi West 9.2 mph - N/A   Clear
12:15 PM 37.0 °F 29.3 °F 32.0 °F 82% 30.29 in 10.0 mi West 11.5 mph - N/A   Clear
12:35 PM 38.3 °F 31.4 °F 32.4 °F 79% 30.29 in 10.0 mi West 10.4 mph - N/A   Clear
12:54 PM 37.9 °F 30.9 °F 32.0 °F 79% 30.29 in 10.0 mi WNW 10.4 mph - N/A   Clear
1:15 PM 38.3 °F 31.4 °F 32.0 °F 78% 30.29 in 10.0 mi West 10.4 mph - N/A   Clear
1:35 PM 39.2 °F 33.0 °F 32.0 °F 75% 30.29 in 10.0 mi West 9.2 mph - N/A   Clear
1:54 PM 39.2 °F 32.5 °F 32.0 °F 75% 30.28 in 10.0 mi West 10.4 mph - N/A   Clear
2:15 PM 39.2 °F 32.0 °F 32.0 °F 75% 30.29 in 10.0 mi West 11.5 mph - N/A   Clear
2:35 PM 39.4 °F 32.7 °F 31.5 °F 73% 30.28 in 10.0 mi West 10.4 mph - N/A   Clear
2:54 PM 39.9 °F 33.9 °F 31.6 °F 72% 30.28 in 10.0 mi West 9.2 mph - N/A   Clear
3:15 PM 40.3 °F 33.9 °F 31.1 °F 70% 30.28 in 10.0 mi West 10.4 mph - N/A   Clear
3:34 PM 40.3 °F 34.4 °F 31.1 °F 70% 30.28 in 10.0 mi West 9.2 mph - N/A   Clear
3:55 PM 40.1 °F 33.2 °F 29.8 °F 67% 30.27 in 10.0 mi WSW 11.5 mph - N/A   Clear
4:14 PM 40.5 °F 34.6 °F 28.9 °F 64% 30.27 in 10.0 mi West 9.2 mph - N/A   Clear
4:34 PM 39.7 °F 32.7 °F 28.6 °F 64% 30.27 in 10.0 mi West 11.5 mph - N/A   Clear
4:55 PM 39.9 °F 32.9 °F 29.7 °F 67% 30.27 in 10.0 mi WSW 11.5 mph - N/A   Clear
5:14 PM 40.1 °F 32.7 °F 28.8 °F 64% 30.27 in 10.0 mi West 12.7 mph - N/A   Clear
5:34 PM 40.1 °F 33.6 °F 28.6 °F 63% 30.27 in 10.0 mi West 10.4 mph - N/A   Clear
5:55 PM 39.9 °F 33.4 °F 27.7 °F 62% 30.27 in 10.0 mi WSW 10.4 mph - N/A   Clear
6:14 PM 39.6 °F 33.0 °F 27.5 °F 62% 30.27 in 10.0 mi WSW 10.4 mph - N/A   Clear
6:35 PM 39.0 °F 32.8 °F 27.7 °F 64% 30.27 in 10.0 mi West 9.2 mph - N/A   Clear
6:54 PM 38.1 °F 30.7 °F 27.1 °F 65% 30.27 in 10.0 mi WSW 11.5 mph - N/A   Clear
7:15 PM 37.6 °F 31.0 °F 27.7 °F 67% 30.27 in 10.0 mi WSW 9.2 mph - N/A   Clear
7:35 PM 36.5 °F 29.7 °F 28.4 °F 72% 30.27 in 10.0 mi WSW 9.2 mph - N/A   Clear
7:54 PM 35.2 °F 30.3 °F 28.9 °F 78% 30.27 in 10.0 mi WSW 5.8 mph - N/A   Clear
8:15 PM 34.3 °F 27.7 °F 28.6 °F 79% 30.27 in 10.0 mi WSW 8.1 mph - N/A   Clear
8:35 PM 33.8 °F 27.7 °F 29.1 °F 83% 30.27 in 10.0 mi WSW 6.9 mph - N/A   Clear
8:54 PM 33.3 °F 27.9 °F 29.1 °F 85% 30.28 in 10.0 mi WSW 5.8 mph - N/A   Clear
9:15 PM 32.9 °F 26.7 °F 28.9 °F 85% 30.28 in 10.0 mi WSW 6.9 mph - N/A   Clear
9:34 PM 32.9 °F 27.5 °F 28.6 °F 84% 30.28 in 10.0 mi WSW 5.8 mph - N/A   Clear
9:55 PM 32.0 °F 27.5 °F 28.2 °F 86% 30.28 in 10.0 mi WSW 4.6 mph - N/A   Clear
10:14 PM 32.0 °F 26.4 °F 28.0 °F 85% 30.29 in 10.0 mi WSW 5.8 mph - N/A   Clear
10:35 PM 32.0 °F 26.4 °F 28.9 °F 88% 30.29 in 10.0 mi WSW 5.8 mph - N/A   Clear
10:54 PM 31.5 °F 25.8 °F 28.6 °F 89% 30.29 in 10.0 mi WSW 5.8 mph - N/A   Clear
11:14 PM 31.8 °F 27.3 °F 29.7 °F 92% 30.29 in 10.0 mi WSW 4.6 mph - N/A   Clear
11:34 PM 31.8 °F 28.5 °F 29.8 °F 92% 30.29 in 10.0 mi WSW 3.5 mph - N/A   Clear
11:54 PM 32.0 °F 27.5 °F 30.0 °F 92% 30.29 in 10.0 mi SW 4.6 mph - N/A   Clear